sat.trackr.live / text

‹ back to catalog

UNKNOWN

NORAD 81899

UNKNOWN UNKNOWN UNKNOWN

§ Identity

Operator
Country
Launch date
Launch site
Launch vehicle
Mass (kg)
RCS (m²)

External: N2YO · Heavens-Above

§ Orbital elements

Epoch: 2026-09-15T21:38:10.960800Z

Period
109.00 min
Inclination
102.4142°
Eccentricity
0.0173794
Mean motion
13.21077112 rev/d
Perigee alt
1,049.2 km
Apogee alt
1,312.0 km
Semi-major
7,558.7 km
B*
2.4521e-3
RAAN
55.8405°
Arg perigee
346.8643°
Mean anomaly
12.7970°
Rev number
61,557

§ Raw data

UNKNOWN1 81899U          26258.90151575  .00001026  00000+0  24521-2 0  99952 81899 102.4142  55.8405 0173794 346.8643  12.7970 13.21077112615578

JSON: /api/v1/satellites/81899 · /tle

For live sub-satellite position, see the globe view (requires WebGL).

§ Visibility from observer

Set your observer location to see the next 7 days of passes ≥ 10°. The values pass through the URL so the page stays shareable.

No JS? Fill the form by hand. The geolocation button needs JavaScript.